Weather History for KESF - May, 2013

Change the Weather History Date:

Thursday, May 16, 2013

  Actual Average (KAEX) Record (KAEX)
Temperature  
Mean Temperature 73 °F 75 °F  
Max Temperature 84 °F 85 °F 93 °F (1925)
Min Temperature 64 °F 64 °F 46 °F (1907)
Cooling Degree Days 8 10  
Month to date cooling degree days 125  
Year to date cooling degree days 284  
Growing Degree Days 23 (Base 50)    
Moisture  
Dew Point 64 °F    
Average Humidity 73    
Maximum Humidity 94    
Minimum Humidity 54    
Precipitation  
Precipitation 0.00 in 0.13 in 3.40 in (1983)
Month to date precipitation 2.22  
Year to date precipitation 21.50  
Sea Level Pressure  
Sea Level Pressure 29.93 in    
Wind  
Wind Speed 6 mph (South)    
Max Wind Speed 14 mph    
Max Gust Speed 22 mph    
Visibility 10 miles    
Events Rain    
T = Trace of Precipitation, MM = Missing Value Source: NWS Daily Summary

Daily Weather History Graph

Daily Weather History Graph

Search for Another Location

Airport or City:

Trip Planner

Search our weather history database for the weather conditions in past years. The results will help you decide how hot, cold, wet, or windy it might be!

Date:

Astronomy

May. 16, 2013 Rise Set
Actual Time 6:12 AM CDT 7:59 PM CDT
Civil Twilight 5:45 AM CDT 8:26 PM CDT
Nautical Twilight 5:13 AM CDT 8:58 PM CDT
Astronomical Twilight 4:39 AM CDT 9:32 PM CDT
Moon 11:39 AM CDT (5/16) 12:26 AM CDT (5/16)
Length of Visible Light 14h 40m
Length of Day
13h 46m
Waxing Crescent, 36% of the Moon is Illuminated
May 16
Waxing Crescent
May 17
First Quarter
May 24
Full
May 31
Last Quarter
Jun 8
New

Hourly Weather History & Observations

Time (CDT) Temp. Heat Index Dew Point Humidity Pressure Visibility Wind Dir Wind Speed Gust Speed Precip Events Conditions
12:53 AM 68.0 °F - 63.0 °F 84% 29.99 in 10.0 mi SSE 6.9 mph - N/A   Clear
1:53 AM 68.0 °F - 63.0 °F 84% 29.99 in 10.0 mi SSE 3.5 mph - N/A   Overcast
2:53 AM 64.9 °F - 62.1 °F 90% 29.98 in 10.0 mi Calm Calm - N/A   Scattered Clouds
3:53 AM 64.9 °F - 62.1 °F 90% 29.96 in 10.0 mi Calm Calm - N/A   Partly Cloudy
4:53 AM 64.0 °F - 62.1 °F 93% 29.96 in 10.0 mi ESE 3.5 mph - N/A   Mostly Cloudy
5:53 AM 64.0 °F - 61.0 °F 90% 29.98 in 9.0 mi Calm Calm - N/A   Mostly Cloudy
6:53 AM 66.0 °F - 63.0 °F 90% 29.99 in 10.0 mi Calm Calm - N/A   Mostly Cloudy
7:33 AM 66.2 °F - 64.4 °F 94% 29.96 in 10.0 mi SSE 9.2 mph - N/A   Scattered Clouds
7:53 AM 68.0 °F - 64.0 °F 87% 29.96 in 10.0 mi SSE 9.2 mph - N/A   Scattered Clouds
8:53 AM 73.9 °F - 66.0 °F 76% 29.94 in 10.0 mi South 11.5 mph 18.4 mph N/A   Partly Cloudy
9:53 AM 75.9 °F - 64.9 °F 69% 29.92 in 10.0 mi South 11.5 mph 21.9 mph N/A   Partly Cloudy
10:53 AM 75.9 °F - 64.0 °F 67% 29.91 in 10.0 mi South 11.5 mph - N/A   Clear
11:53 AM 77.0 °F - 64.9 °F 66% 29.94 in 10.0 mi SSW 11.5 mph 16.1 mph N/A   Partly Cloudy
12:49 PM 78.8 °F - 66.2 °F 65% 29.94 in 10.0 mi SSW 8.1 mph 16.1 mph N/A   Mostly Cloudy
12:53 PM 78.1 °F - 66.0 °F 66% 29.94 in 10.0 mi South 13.8 mph 18.4 mph N/A   Mostly Cloudy
1:11 PM 75.2 °F - 64.4 °F 69% 29.94 in 10.0 mi South 6.9 mph 17.3 mph 0.00 in Rain Light Rain
1:53 PM 79.0 °F - 64.9 °F 62% 29.92 in 10.0 mi South 9.2 mph 16.1 mph 0.00 in   Partly Cloudy
2:53 PM 82.9 °F 84.6 °F 64.9 °F 54% 29.90 in 10.0 mi South 10.4 mph 20.7 mph N/A   Mostly Cloudy
3:53 PM 82.0 °F 83.8 °F 64.9 °F 56% 29.88 in 10.0 mi South 9.2 mph - N/A   Mostly Cloudy
4:53 PM 82.4 °F 84.6 °F 66.2 °F 58% 29.87 in 10.0 mi South 10.4 mph - N/A   Scattered Clouds
5:53 PM 82.0 °F 84.1 °F 66.0 °F 58% 29.86 in 10.0 mi South 8.1 mph - N/A   Mostly Cloudy
6:53 PM 80.1 °F 82.1 °F 66.0 °F 62% 29.86 in 10.0 mi South 8.1 mph - N/A   Scattered Clouds
7:53 PM 77.0 °F - 63.0 °F 62% 29.86 in 10.0 mi South 8.1 mph - N/A   Scattered Clouds
8:53 PM 75.0 °F - 59.0 °F 57% 29.88 in 10.0 mi SSW 9.2 mph - N/A   Clear
9:53 PM 73.0 °F - 61.0 °F 66% 29.92 in 10.0 mi Calm Calm - N/A   Mostly Cloudy
10:53 PM 71.1 °F - 62.1 °F 73% 29.94 in 10.0 mi Calm Calm - N/A   Partly Cloudy
11:53 PM 70.0 °F - 63.0 °F 78% 29.93 in 10.0 mi SSW 3.5 mph - N/A   Partly Cloudy